Theta_e
318 321 325 318 299 295 290 294 297 297 298 301 303 301 302 299 303 291 299 300 304 303 305 308 329 333 341 352 352 355 355 355 356 355 357 356 355 354 355 355 355 355 355 354 353 353 352 353 352
313 322 319 312 292 288 290 295 294 296 299 301 303 304 300 294 296 296 295 300 303 303 305 307 324 330 334 343 351 352 354 356 357 355 355 356 355 354 354 353 353 353 353 352 353 352 352 352 352
316 324 310 299 294 289 290 294 292 296 301 299 297 299 295 292 295 294 297 300 301 301 304 307 319 327 329 335 347 351 354 356 356 355 355 355 354 353 353 353 353 352 352 352 352 351 352 351 351
316 313 306 293 292 295 292 290 293 294 300 299 296 293 294 296 295 296 298 300 299 299 303 308 315 323 323 328 338 349 352 354 354 355 355 354 354 353 353 352 351 351 351 351 351 351 350 350 349
317 308 295 292 293 295 290 291 292 292 294 295 295 292 292 294 296 296 297 299 299 299 302 305 313 316 320 322 328 333 348 352 353 354 355 354 353 353 353 351 350 351 351 351 351 350 350 349 349
304 301 291 288 292 293 289 290 291 291 292 293 291 291 293 294 293 295 297 297 299 299 302 304 308 311 315 318 321 324 331 346 351 352 354 354 353 352 352 351 350 350 351 350 350 350 349 349 348
298 295 290 291 292 291 288 290 288 288 289 289 292 288 295 291 293 295 296 297 298 299 299 302 305 306 310 312 316 319 322 329 346 349 352 351 349 350 351 350 350 350 350 349 349 349 348 347 346
300 296 289 288 288 287 288 289 289 287 285 290 291 287 286 289 293 295 295 297 297 298 298 299 302 304 306 308 312 315 315 323 329 345 345 343 343 345 348 345 346 348 348 348 347 347 346 344 343
300 289 286 286 287 286 288 285 287 288 286 286 286 287 290 293 294 293 292 294 295 297 296 297 299 301 305 307 309 310 311 315 322 338 337 338 345 345 341 341 342 345 346 346 346 344 343 340 338
289 288 285 288 286 283 285 285 284 283 284 285 287 290 291 291 291 290 289 290 291 292 294 295 296 299 302 306 306 306 308 308 314 319 339 343 345 344 343 338 338 343 343 343 344 342 339 335 332
286 282 285 286 287 286 284 283 286 283 281 284 283 286 288 289 289 290 289 289 290 291 293 294 295 296 302 300 303 305 307 307 310 313 315 342 343 340 339 338 339 338 336 339 337 335 333 332 330
282 286 286 286 287 285 283 285 283 284 283 286 287 287 287 287 288 289 288 289 289 290 292 293 294 294 297 299 302 305 306 307 306 308 313 318 339 339 337 337 337 338 337 334 333 332 332 330 329
283 284 286 286 286 285 286 283 282 283 285 286 287 288 286 287 288 288 289 290 289 289 291 291 292 293 294 297 299 302 303 305 306 305 310 314 319 337 338 337 337 336 336 333 331 332 329 327 326
284 284 284 286 285 285 283 282 283 283 286 286 287 285 285 286 286 287 287 287 288 289 289 291 292 292 293 294 298 299 301 304 305 304 307 309 315 337 337 336 335 335 334 333 331 329 327 326 325
284 280 283 284 284 283 283 279 280 283 286 285 285 285 285 286 286 286 287 287 287 288 289 290 291 292 291 292 295 298 300 303 303 303 306 308 313 332 336 335 333 334 334 330 329 327 326 323 323
281 279 274 282 283 283 280 272 282 283 283 282 283 283 284 285 286 285 287 287 288 288 288 290 291 291 291 291 293 295 300 302 302 303 306 308 311 316 335 333 332 333 329 328 326 324 322 320 319
277 269 273 276 283 282 279 274 281 285 282 280 280 281 282 283 285 284 286 287 287 287 288 288 289 289 290 291 292 294 296 299 303 304 305 308 311 314 333 332 332 330 328 326 324 322 320 316 315
270 270 272 273 279 281 276 276 281 283 281 278 279 280 281 282 284 285 287 287 287 287 288 288 288 289 289 290 291 294 296 300 303 304 304 307 309 311 330 332 330 329 326 323 322 319 318 314 309
275 272 272 276 280 276 275 275 279 281 280 277 278 279 280 282 284 285 286 286 286 286 286 287 287 287 288 288 288 289 291 296 297 300 302 306 307 309 313 331 328 327 324 322 320 317 311 306 304
274 272 271 274 278 276 274 275 279 281 279 280 279 278 280 281 282 284 285 285 285 285 285 286 287 287 288 288 289 289 290 293 295 298 299 301 306 309 314 329 327 325 324 321 318 312 307 304 308
273 271 270 270 274 277 273 271 275 278 279 281 280 279 281 280 281 283 283 283 284 283 284 286 286 287 287 288 288 289 290 292 294 297 299 302 307 308 311 323 327 324 324 320 315 310 305 305 306
270 276 274 272 270 262 273 261 273 275 277 279 278 278 279 280 282 282 282 282 283 283 284 285 286 286 287 287 287 286 286 287 291 296 299 303 305 306 310 313 326 324 323 319 314 310 310 309 306
272 276 274 273 268 264 269 261 271 276 274 276 277 278 278 279 280 280 281 282 283 284 283 284 285 286 286 287 287 286 286 288 291 293 296 299 303 305 309 313 323 323 322 318 313 310 311 311 309
278 274 274 272 268 259 264 263 265 270 273 274 276 278 278 279 279 280 282 282 282 283 283 283 284 284 285 286 286 286 285 286 288 291 294 297 301 305 310 313 321 322 319 315 312 312 313 311 311
274 269 261 259 260 259 268 265 266 274 275 276 275 277 278 279 278 279 279 279 280 281 282 282 283 282 284 285 285 286 286 286 287 289 292 295 300 304 309 315 321 320 318 315 313 314 314 311 310
270 265 257 252 260 262 269 258 267 276 276 277 278 278 278 278 278 278 279 279 279 280 281 281 281 282 283 283 284 285 286 287 288 290 292 294 300 305 310 317 321 319 317 315 315 315 314 312 308
269 263 269 260 264 259 265 268 272 276 276 276 277 277 276 277 277 278 278 279 279 279 280 280 280 281 282 283 284 284 286 287 287 289 292 295 299 305 308 312 320 318 315 315 316 314 313 313 305
269 272 261 259 253 254 263 260 264 268 271 274 275 275 276 276 277 277 278 278 279 279 280 280 281 281 282 283 283 284 285 286 287 289 291 294 297 302 309 310 318 317 315 315 315 315 313 311 305
267 261 264 263 260 253 255 260 267 265 266 272 273 275 275 276 276 276 277 278 279 279 279 279 280 280 281 282 283 283 284 286 287 289 291 294 297 301 306 308 314 317 315 315 315 314 312 309 305
269 263 262 258 256 259 256 261 272 267 274 274 273 274 276 275 276 276 277 277 277 278 279 278 279 279 280 282 282 283 284 286 287 288 291 294 296 301 306 308 316 316 315 315 315 313 312 309 305
Wind_Speed
17 14 3 2 1 1 4 6 6 5 6 6 7 5 6 9 5 2 3 12 11 11 14 18 29 30 29 15 14 14 14 13 14 14 17 18 18 17 16 17 17 18 18 19 20 20 21 21 21
11 13 2 4 1 4 6 1 9 10 6 9 7 7 7 7 8 5 8 13 10 11 13 17 28 28 30 27 14 16 16 15 14 15 16 17 18 18 18 18 18 18 19 19 19 19 20 20 20
12 4 2 3 5 5 5 9 8 6 8 8 7 7 5 4 9 4 8 11 10 10 11 16 26 28 30 30 17 17 17 16 16 16 17 17 18 20 19 18 17 18 19 19 20 21 20 19 19
5 3 3 2 9 12 7 8 9 7 7 9 8 7 7 8 5 8 10 11 11 8 10 16 26 26 28 29 28 15 19 18 19 17 18 17 18 19 18 17 18 19 19 20 20 20 19 17 19
3 3 3 5 10 7 11 9 8 7 7 8 7 8 8 10 9 10 11 12 11 10 9 12 25 25 26 29 27 27 14 19 21 19 20 19 19 19 18 18 19 19 20 20 21 20 19 17 18
3 1 3 6 7 7 10 9 7 10 10 8 8 8 5 11 11 11 11 10 11 12 7 11 19 25 24 25 27 28 25 13 21 22 21 21 20 20 20 18 19 20 21 21 21 20 19 17 19
2 2 5 9 10 0 5 8 9 8 8 6 8 5 3 14 9 9 10 10 11 12 13 9 12 17 22 22 24 28 28 26 15 23 22 21 21 21 21 20 20 21 22 21 21 21 19 17 19
3 1 4 3 5 5 4 6 10 7 6 10 4 1 5 9 10 8 9 9 11 11 13 10 11 13 14 12 22 25 28 24 25 23 20 16 17 20 22 21 21 21 22 22 21 21 20 19 22
4 2 4 6 6 4 10 8 6 8 6 7 5 6 7 10 8 9 9 9 10 10 12 12 9 10 11 12 13 18 24 27 23 10 15 14 11 14 15 16 20 21 22 23 22 21 19 20 20
5 3 6 4 6 7 9 8 8 6 8 8 7 13 13 12 8 9 9 10 13 13 12 12 12 10 11 9 10 11 12 12 12 12 10 11 12 11 13 15 20 25 22 23 23 21 20 14 10
7 4 6 5 6 7 8 9 8 7 6 8 8 10 10 8 8 8 9 9 10 11 9 11 12 8 9 9 7 5 6 7 7 13 14 9 9 8 7 7 9 11 17 10 14 13 9 12 9
4 2 4 6 6 5 8 9 7 10 9 8 10 10 6 9 8 8 8 8 9 10 10 11 11 10 6 5 6 5 6 6 7 11 13 7 5 9 9 8 10 11 9 12 12 8 10 7 12
5 8 6 5 5 7 8 7 9 12 4 6 5 8 9 9 10 8 7 7 8 10 10 11 10 10 7 6 7 6 6 6 6 8 11 8 10 11 11 11 10 10 12 11 10 8 7 10 13
6 7 11 6 4 7 7 11 6 7 7 4 7 8 9 9 8 6 7 7 8 10 10 9 10 9 10 6 4 5 7 10 6 7 9 12 11 11 13 13 11 12 12 12 7 8 10 10 12
6 6 11 6 3 4 7 11 6 1 5 5 7 7 5 5 5 6 7 6 6 6 8 9 11 10 11 8 4 5 7 7 8 6 10 12 12 6 14 13 13 12 12 13 10 11 10 11 12
5 2 7 7 3 5 3 8 14 3 7 6 5 2 1 2 3 5 6 7 7 9 8 7 9 10 10 8 6 0 4 7 7 9 9 13 16 14 15 13 15 13 12 12 12 12 12 11 11
3 6 14 13 10 6 3 11 7 16 1 1 3 3 3 2 3 4 6 8 10 11 11 8 8 8 9 8 8 4 6 6 5 5 5 11 9 11 15 14 15 16 13 12 13 13 13 12 11
12 10 9 16 8 13 8 15 15 12 5 5 6 6 3 3 5 6 7 10 10 11 10 7 8 8 10 6 6 5 4 6 5 4 9 10 7 10 10 15 18 16 14 13 13 16 13 12 13
11 12 18 18 12 14 12 22 19 11 9 5 6 6 1 6 6 7 10 12 11 10 12 8 8 8 7 6 5 5 3 7 8 7 13 11 9 10 20 15 18 16 16 17 18 17 19 13 14
13 16 11 10 18 20 12 23 17 12 6 8 6 3 6 7 6 7 10 12 11 9 10 11 9 9 8 7 5 5 4 3 6 8 9 11 12 9 17 18 18 19 15 19 18 20 14 12 12
14 7 10 16 24 15 8 9 3 7 6 6 5 1 6 5 9 11 14 13 12 10 10 11 11 11 8 8 7 7 6 4 6 7 7 7 10 7 13 5 21 20 16 16 19 19 22 14 5
8 10 17 21 13 4 7 6 4 11 7 8 9 5 6 7 9 12 15 14 14 14 13 12 10 10 10 8 8 8 8 9 6 7 7 9 9 11 11 8 19 21 15 18 17 16 15 18 15
9 24 22 19 7 5 2 3 8 11 7 7 7 7 7 12 14 15 16 17 16 13 13 12 11 11 11 8 10 8 11 9 7 6 10 9 9 8 11 6 14 21 16 18 20 18 17 13 14
17 19 14 3 2 2 2 5 7 3 2 4 7 6 12 14 15 19 17 19 17 13 13 13 14 13 12 12 12 12 14 12 10 8 7 7 6 6 8 9 10 21 19 19 18 18 21 15 13
16 13 7 11 6 5 5 6 10 2 7 5 0 10 15 15 17 19 19 18 17 16 15 14 15 14 13 13 11 12 14 14 13 11 8 9 6 7 6 8 8 15 20 20 19 18 18 16 15
7 5 5 5 6 10 17 6 9 5 8 6 9 14 18 21 19 20 21 20 18 17 17 16 17 16 14 14 15 13 15 10 9 10 9 8 8 8 7 6 12 14 21 19 19 15 14 16 12
6 5 2 4 9 5 6 7 6 9 5 8 13 23 24 25 24 24 22 19 19 18 19 17 18 17 16 15 14 15 14 14 12 12 10 9 10 9 7 7 12 13 18 21 21 15 16 16 12
5 3 5 3 6 8 6 8 6 7 8 8 20 23 26 25 25 24 21 21 19 19 18 18 16 16 17 17 16 15 15 15 13 12 14 13 12 13 8 7 10 16 17 20 21 17 16 16 12
0 3 3 2 2 3 8 8 5 5 2 18 24 26 26 28 28 25 22 21 20 20 18 18 15 18 18 17 16 16 15 15 14 14 14 13 13 13 9 8 7 15 17 19 20 19 20 18 16
0 3 5 4 7 4 3 12 8 5 20 23 28 28 29 28 29 27 25 23 21 18 17 20 18 18 17 17 17 16 16 15 15 15 15 13 15 13 10 9 11 17 18 20 21 21 20 20 19
Wind_Direction
326 305 302 307 352 222 269 255 239 220 51 8 329 348 106 33 29 83 26 4 26 29 3 5 357 354 351 314 210 180 167 173 163 159 150 146 142 138 133 133 132 131 128 125 123 120 116 112 109
307 299 266 270 274 227 250 94 17 35 41 340 331 344 43 75 8 69 18 347 28 36 15 2 0 359 355 348 226 201 177 176 161 163 159 154 147 143 136 135 135 134 130 128 123 119 115 113 114
296 294 268 198 209 221 263 60 40 349 72 41 18 65 40 19 60 44 349 338 359 44 26 7 6 3 358 356 333 213 185 179 165 166 162 159 151 148 143 138 134 132 128 125 122 121 116 118 116
314 200 258 288 257 284 20 29 2 354 76 58 6 89 93 42 56 18 349 347 0 58 35 13 8 3 4 360 3 248 197 183 170 168 164 162 158 153 147 142 137 131 129 126 126 123 120 120 120
224 272 274 221 241 256 63 24 359 347 360 25 34 8 101 62 37 12 353 353 3 9 40 21 10 6 3 3 1 358 265 195 177 171 165 163 160 154 147 145 138 134 132 131 129 125 122 122 115
292 319 268 240 259 126 67 9 354 14 3 359 37 340 102 75 34 6 353 353 10 4 42 25 17 7 3 358 359 355 348 274 187 175 169 164 158 154 147 145 141 139 135 133 130 127 126 120 119
270 299 248 274 275 278 50 356 40 357 337 22 349 319 101 54 33 9 357 359 13 7 360 33 21 10 2 357 354 355 350 340 242 180 170 161 156 154 147 146 145 142 137 134 131 129 126 120 116
302 285 278 281 354 69 81 19 16 356 317 343 323 298 328 41 26 16 4 1 8 10 360 8 21 11 0 348 357 350 351 346 340 180 172 154 156 153 149 149 147 143 139 134 132 130 123 117 119
304 286 273 17 10 12 18 4 346 1 301 288 322 318 33 30 19 16 8 358 2 2 359 357 5 16 358 350 353 353 354 348 360 244 170 155 159 155 150 148 149 143 137 133 131 127 118 117 109
11 311 35 8 352 339 335 347 329 312 312 307 310 355 9 12 356 12 15 357 355 357 356 359 352 14 2 355 340 358 350 339 333 352 199 162 158 158 150 151 149 144 136 133 131 129 125 117 108
357 4 13 18 7 354 321 305 346 312 284 303 346 330 358 342 346 7 18 12 348 350 356 356 347 353 10 352 342 345 351 342 325 343 335 173 161 154 144 147 147 130 131 130 130 133 132 125 111
309 49 354 333 347 325 307 309 303 284 278 5 6 350 345 338 339 26 19 6 354 351 352 349 347 341 15 358 334 322 354 333 344 331 323 347 190 159 146 151 141 141 138 136 143 147 144 123 127
5 6 320 289 297 284 291 286 286 284 285 39 340 341 336 349 21 18 19 4 355 350 349 342 346 334 344 10 341 351 292 333 318 334 302 330 322 159 153 151 152 148 145 148 155 148 122 116 111
332 307 278 260 259 268 334 303 307 295 280 232 27 6 17 23 8 3 12 355 355 346 337 334 336 331 339 326 2 325 342 283 334 299 326 328 317 169 161 154 156 152 150 153 149 139 121 109 113
273 284 286 175 225 25 5 303 203 237 11 337 27 34 7 55 352 16 356 344 336 330 321 329 328 331 326 323 339 332 313 328 317 298 330 315 311 242 166 156 156 154 153 145 134 123 112 108 107
249 176 3 347 36 153 73 274 294 20 332 16 59 109 283 53 9 11 336 332 337 335 323 318 326 320 315 320 309 208 243 263 334 320 310 330 300 340 168 160 157 153 147 144 135 127 121 113 108
50 313 326 316 318 279 191 276 278 298 228 194 168 220 262 319 344 12 325 358 349 339 330 325 325 313 318 314 310 304 308 297 254 291 342 276 313 341 163 167 153 151 148 146 139 130 127 120 108
310 313 295 301 295 300 324 282 291 306 145 195 189 226 231 329 353 340 344 359 345 338 321 323 316 319 313 311 309 302 318 295 297 349 287 321 313 331 227 171 153 153 148 146 138 134 123 118 108
280 298 304 297 326 350 303 289 281 261 145 193 205 224 351 16 335 326 352 350 340 334 322 314 316 311 318 314 314 314 310 317 322 322 313 316 316 346 285 163 152 150 152 152 148 132 126 122 122
324 313 304 295 341 315 302 289 277 257 169 172 217 55 24 312 293 312 347 342 332 320 320 319 313 311 310 301 297 294 288 253 265 256 264 289 298 304 299 166 158 150 157 155 145 141 131 131 154
326 295 327 304 317 300 339 282 153 123 128 127 78 205 251 318 337 326 341 333 326 322 314 307 304 295 293 292 292 291 290 277 268 277 291 278 259 295 291 228 157 153 156 158 149 146 143 151 167
308 348 311 303 320 294 24 285 263 159 172 183 202 173 31 345 321 337 330 332 325 313 310 298 294 292 290 283 287 283 280 279 278 291 305 281 294 302 300 3 172 156 159 158 154 153 152 154 153
280 313 300 283 272 36 214 81 275 148 186 159 116 65 23 347 337 332 323 325 315 314 305 301 297 285 280 273 274 270 270 269 266 253 257 268 268 283 272 310 216 159 159 158 152 157 159 160 161
329 315 313 80 166 356 253 104 281 197 148 61 64 42 1 348 330 322 318 319 312 308 302 298 290 281 274 269 264 260 262 265 266 264 262 268 265 260 254 275 245 158 160 157 156 164 162 158 163
352 345 348 3 356 249 207 306 240 73 118 105 303 359 349 329 331 318 315 313 306 303 299 295 288 287 282 271 259 258 256 254 257 260 261 259 242 237 243 251 202 175 160 159 154 163 163 161 161
312 71 113 291 320 295 289 230 262 178 127 134 11 342 331 335 324 314 314 309 303 302 298 288 285 280 275 274 269 262 254 251 246 245 246 260 258 251 215 248 182 193 162 158 159 164 159 156 152
322 33 282 261 252 270 251 287 25 30 29 2 342 333 327 323 318 314 310 304 302 299 292 287 279 276 267 264 262 259 256 243 242 242 237 237 249 249 232 260 177 178 171 160 160 163 159 156 151
117 282 40 335 329 302 278 308 241 340 330 345 324 320 316 313 311 310 307 304 298 292 287 278 273 271 268 261 255 250 249 246 241 239 234 230 237 240 207 217 183 169 182 165 163 164 157 148 150
10 348 1 159 164 229 301 270 209 280 345 325 325 318 315 312 314 311 306 301 297 293 287 285 274 270 262 255 250 246 243 239 234 238 234 226 237 233 208 215 181 172 181 178 168 162 158 150 150
337 218 138 127 283 254 187 270 277 227 337 334 317 314 314 312 310 308 307 305 303 298 287 282 276 267 259 252 246 242 238 235 229 231 227 222 233 224 223 206 173 172 182 185 168 162 159 153 156